Showing default

COSMOS 1561, 15000

Orbit data source: Space-Track

COSMOS 1561, 15000 is a payload satellite owned by GUKOS (CIS) in LEO that was launched on Mon, 28 May 1984 UTC via a KOSMOS 11K65M launch vehicle from the Plesetsk Missile And Space Complex (PKMTR). Payload-class satellites include a variety of spacecraft equipped with specific instruments for various scientific and technological missions. These include communications satellites like Starlink; space stations such as the ISS; scientific satellites like the Hubble; Earth observation satellites from companies like Planet Labs, Umbra, and HawkEye 360; GPS; miniature CubeSats for education and research; and military/defense satellites.

Loading next visibility...
Identifier
15000, 1984-052C
Orbit
LEO
Country
Flag of CISCIS
Related business
Manufacturer
NPO PM
Mission
Spacecraft
Bus & Motor
STRELA-1 11F625, Unknown motor
Mass
60 kg wet, 60 kg dry
Launch date (UTC)
1984-05-28 (42 years ago)
Launch vehicle
KOSMOS 11K65M
Launch site
Plesetsk Missile And Space Complex (PKMTR)
Object type
Payload
Rocket body
Debris
Shape & HBR
Unknown
Radar Cross Section
Medium (>0.1 m² and <1 m²)

Expand to show TLE details & history
Last TLE update: 8 hours ago

TLE from 8 hours ago
0 COSMOS 1561
1 15000U 84052C   26126.95414076 -.00000008  00000-0  53619-4 0  9995
2 15000  74.0109  85.5851 0015490 312.8315 104.7670 12.47990777910595
Epoch: 2026-05-06T22:53Z
TLE epoch observation values (Epoch: 2026-05-06T22:53:57.761Z)
Latitude
54.50755°
Longitude
-99.14356°
Altitude
1,484.618 km
Speed
7.125 km/s
True Right ascension
07h 16m 37s
True Declination
54° 21' 36"
Sunlit
Object was in daylight at epoch
Visualization orbit readout
Latitude
Unknown
Longitude
Unknown
Altitude
Unknown
Speed
Unknown
Apparent Right ascension
Unknown
Apparent Declination
Unknown
Sunlit
N/A
Visualization observer readout
Local Sidereal Time
15:00:12
Azimuth
Unknown
Elevation
Unknown
Doppler factor
Unknown
Orbital elements
Apogee altitude
1,482.907 km
Perigee altitude
1,458.591 km
Semi-major axis
7,848.886 km
Eccentricity
0.00155
Inclination
74.0109°
RAAN
85.5851°
Arg. of periapsis
312.8315°
True anomaly
104.93855°
Mean anomaly
104.767°
Eccentric anomaly
104.85279°
Mean motion
3.12127 °/min
Orbital period
115.34 mins
BSTAR
0.000053619
Loading maneuver chart data...
Computing Atmospheric mass density...
Loading historical data...
Loading historical data...
Loading historical data...
Loading historical data...
Loading historical data...
Loading historical data...
Loading historical data...

Documentation

Showing up to 5 results
|